CDT,Max TemperatureF,Mean TemperatureF,Min TemperatureF,Max Dew PointF,MeanDew PointF,Min DewpointF,Max Humidity, Mean Humidity, Min Humidity, Max Sea Level PressureIn, Mean Sea Level PressureIn, Min Sea Level PressureIn, Max VisibilityMiles, Mean VisibilityMiles, Min VisibilityMiles, Max Wind SpeedMPH, Mean Wind SpeedMPH, Max Gust SpeedMPH,PrecipitationIn, CloudCover, Events, WindDirDegrees
2012-9-1,100,80,62,62,52,42,84,46,15,30.06,29.95,29.88,10,10,10,10,2,,0.00,0,,203
2012-9-2,104,82,63,57,52,46,70,38,16,29.92,29.86,29.79,10,10,10,17,6,23,0.00,0,,202
2012-9-3,104,86,69,60,56,51,70,37,19,29.89,29.83,29.77,10,10,10,14,9,24,0.00,1,,201
2012-9-4,102,85,68,66,59,54,73,49,21,29.96,29.85,29.77,10,8,0,50,8,81,0.31,2,Rain-Thunderstorm,134
2012-9-5,97,81,66,70,64,55,100,67,25,30.03,29.89,29.78,10,9,2,21,8,28,0.38,2,Rain-Thunderstorm,105
2012-9-6,91,78,64,69,65,62,97,68,38,29.95,29.87,29.78,10,10,10,20,7,25,0.00,0,,197
2012-9-7,93,80,64,69,60,49,96,63,36,30.13,29.91,29.78,10,10,10,32,10,45,0.00,1,Rain,28
2012-9-8,82,68,54,52,45,33,83,51,17,30.26,30.18,30.10,10,10,10,13,5,18,0.00,0,,341
2012-9-9,90,68,48,48,43,36,83,46,15,30.18,30.11,30.05,10,10,10,8,3,16,0.00,0,,206
2012-9-10,91,71,52,50,42,37,83,40,17,30.09,30.01,29.92,10,10,10,20,9,36,0.00,0,,178
2012-9-11,93,80,68,47,44,40,40,28,19,29.92,29.87,29.79,10,10,10,32,22,41,0.00,0,,175
2012-9-12,95,78,61,56,49,44,67,38,22,30.12,29.89,29.83,10,10,10,25,19,33,0.00,1,,196
2012-9-13,59,56,53,55,53,49,100,91,74,30.38,30.27,30.15,10,9,2,22,15,28,0.21,8,Rain,9
2012-9-14,66,60,53,52,49,46,89,73,54,30.38,30.33,30.26,10,10,10,17,11,23,0.00,7,,25
2012-9-15,77,62,48,58,51,43,100,72,38,30.29,30.17,30.08,10,10,10,9,4,,0.00,1,,206
2012-9-16,81,66,51,58,54,50,100,79,38,30.08,30.01,29.90,10,6,0,15,5,,0.00,1,Fog,177
2012-9-17,82,68,54,59,55,49,100,68,37,30.06,29.90,29.84,10,10,5,22,9,29,0.00,0,,6
2012-9-18,79,62,46,50,44,37,97,56,24,30.18,30.08,30.00,10,10,10,15,8,22,0.00,0,,213
2012-9-19,91,75,59,56,50,43,67,46,22,29.99,29.95,29.88,10,10,10,21,13,26,0.00,0,,201
2012-9-20,88,72,55,57,53,46,90,56,28,30.04,29.94,29.87,10,10,10,15,5,16,0.00,0,,107
2012-9-21,91,72,54,57,50,39,97,55,17,29.96,29.92,29.86,10,10,10,8,4,,0.00,0,,60
2012-9-22,86,68,53,50,45,37,80,47,23,30.15,30.08,29.99,10,10,10,16,5,22,0.00,0,,63
2012-9-23,84,68,55,53,40,30,65,37,25,30.19,30.12,30.03,10,10,10,12,9,18,0.00,0,,109
2012-9-24,91,76,62,53,50,46,72,40,21,30.01,29.88,29.77,10,10,10,26,12,31,0.00,0,,195
2012-9-25,91,80,69,56,52,44,60,40,26,29.85,29.74,29.68,10,10,10,23,16,30,0.00,0,Rain-Thunderstorm,190
2012-9-26,84,70,57,61,58,54,93,63,38,30.10,29.90,29.74,10,10,10,22,10,22,0.00,1,Thunderstorm,84
2012-9-27,73,66,60,63,61,57,100,89,57,30.19,30.11,30.02,10,8,2,25,11,43,0.54,5,Rain-Thunderstorm,90
2012-9-28,77,68,62,62,60,59,96,76,56,30.08,30.05,30.03,10,10,10,8,6,,0.00,3,,96
2012-9-29,71,66,61,64,62,60,100,93,70,30.13,30.08,30.00,10,6,1,10,4,,0.00,7,,53
2012-9-30,79,66,53,59,56,51,100,87,43,30.07,30.00,29.87,10,5,0,10,2,,0.00,3,Fog,262